N5225J KFLL-

Flight info

Callsign N5225J
Flight time N/A
Altitude VFR/035
Route SHORELINE NORTH
Aircraft C310/L-DOV/C

Departure

Time 2026-05-03 22:53
Airport Fort Lauderdale Hollywood International Airport (KFLL)

Arrival

Time N/A
Airport -
Time Latitude Longitude Altitude Speed Heading
2026-05-03 22:35 26.07151 -80.15534 16 ft 0 kts 234°
2026-05-03 22:37 26.07150 -80.15542 16 ft 3 kts 291°
2026-05-03 22:37 26.07191 -80.15537 15 ft 7 kts
2026-05-03 22:37 26.07198 -80.15500 15 ft 8 kts 135°
2026-05-03 22:38 26.07178 -80.15476 16 ft 0 kts 101°
2026-05-03 22:42 26.07184 -80.15455 16 ft 8 kts 55°
2026-05-03 22:42 26.07144 -80.15394 17 ft 12 kts 125°
2026-05-03 22:42 26.07102 -80.15313 17 ft 11 kts 50°
2026-05-03 22:43 26.07173 -80.15301 17 ft 13 kts 359°
2026-05-03 22:43 26.07281 -80.15301 16 ft 18 kts
2026-05-03 22:43 26.07402 -80.15300 12 ft 15 kts 360°
2026-05-03 22:43 26.07508 -80.15298 11 ft 15 kts
2026-05-03 22:44 26.07565 -80.15361 12 ft 14 kts 268°
2026-05-03 22:44 26.07566 -80.15470 11 ft 14 kts 270°
2026-05-03 22:44 26.07566 -80.15579 12 ft 13 kts 270°
2026-05-03 22:44 26.07566 -80.15670 13 ft 11 kts 270°
2026-05-03 22:45 26.07568 -80.15746 15 ft 9 kts 269°
2026-05-03 22:45 26.07567 -80.15806 16 ft 7 kts 271°
2026-05-03 22:45 26.07568 -80.15868 17 ft 12 kts 270°
2026-05-03 22:45 26.07568 -80.15958 19 ft 10 kts 269°
2026-05-03 22:46 26.07569 -80.16036 19 ft 10 kts 270°
2026-05-03 22:46 26.07569 -80.16143 20 ft 18 kts 271°
2026-05-03 22:46 26.07570 -80.16314 21 ft 26 kts 269°
2026-05-03 22:46 26.07571 -80.16492 19 ft 20 kts 270°
2026-05-03 22:47 26.07606 -80.16564 18 ft 0 kts
2026-05-03 22:51 26.07610 -80.16563 18 ft 2 kts
2026-05-03 22:51 26.07634 -80.16562 17 ft 5 kts
2026-05-03 22:51 26.07683 -80.16557 17 ft 8 kts 15°
2026-05-03 22:51 26.07693 -80.16510 18 ft 0 kts 90°
2026-05-03 22:52 26.07694 -80.16492 19 ft 15 kts 90°
2026-05-03 22:52 26.07692 -80.16127 19 ft 76 kts 90°
2026-05-03 22:53 26.07683 -80.15394 69 ft 105 kts 82°
2026-05-03 22:53 26.07766 -80.14593 381 ft 101 kts 56°
2026-05-03 22:53 26.08119 -80.13912 646 ft 108 kts 48°
2026-05-03 22:53 26.08577 -80.13240 956 ft 107 kts 45°
2026-05-03 22:54 26.09056 -80.12592 1223 ft 112 kts 49°
2026-05-03 22:54 26.09549 -80.11912 1464 ft 115 kts 47°
2026-05-03 22:54 26.10013 -80.11237 1644 ft 122 kts 50°
2026-05-03 22:54 26.10553 -80.10494 1896 ft 123 kts 47°
2026-05-03 22:55 26.11151 -80.09755 2028 ft 133 kts 46°
2026-05-03 22:55 26.11825 -80.09020 2096 ft 142 kts 39°
2026-05-03 22:55 26.12542 -80.08196 2147 ft 150 kts 48°
2026-05-03 22:55 26.13312 -80.07300 1987 ft 168 kts 41°
2026-05-03 22:56 26.14227 -80.06540 2148 ft 162 kts 29°
2026-05-03 22:56 26.15213 -80.05881 2065 ft 170 kts 40°
2026-05-03 22:56 26.16106 -80.04968 1874 ft 179 kts 49°
2026-05-03 22:56 26.16822 -80.03872 1887 ft 172 kts 50°
2026-05-03 22:57 26.17603 -80.02865 1733 ft 174 kts 46°
2026-05-03 22:57 26.18427 -80.01879 1600 ft 174 kts 41°
2026-05-03 22:57 26.19389 -80.01040 1412 ft 178 kts 32°
2026-05-03 22:57 26.20424 -80.00362 1493 ft 165 kts 26°
2026-05-03 22:58 26.21419 -79.99854 1699 ft 148 kts 17°
2026-05-03 22:58 26.22430 -79.99848 1563 ft 158 kts 329°
2026-05-03 22:58 26.23093 -80.00847 1479 ft 163 kts 301°
2026-05-03 22:58 26.23583 -80.01919 1739 ft 142 kts 295°
2026-05-03 22:59 26.23969 -80.02957 1690 ft 152 kts 291°
2026-05-03 22:59 26.24520 -80.03969 1879 ft 151 kts 308°
2026-05-03 22:59 26.25306 -80.04703 2102 ft 149 kts 336°
2026-05-03 22:59 26.26100 -80.05326 2581 ft 130 kts 321°
2026-05-03 23:00 26.26810 -80.06070 2539 ft 151 kts 316°
2026-05-03 23:00 26.27438 -80.06995 2844 ft 145 kts 299°
2026-05-03 23:00 26.27638 -80.08118 2939 ft 160 kts 261°
2026-05-03 23:00 26.27096 -80.09195 3261 ft 155 kts 224°
2026-05-03 23:01 26.26221 -80.09859 3483 ft 161 kts 212°
2026-05-03 23:01 26.25206 -80.10615 3314 ft 184 kts 211°
2026-05-03 23:01 26.24093 -80.11218 3741 ft 164 kts 214°
2026-05-03 23:01 26.23014 -80.11450 3846 ft 172 kts 171°
2026-05-03 23:02 26.21806 -80.11208 4036 ft 172 kts 167°
2026-05-03 23:02 26.20612 -80.10930 4136 ft 176 kts 171°
2026-05-03 23:02 26.19451 -80.11430 3785 ft 202 kts 227°
2026-05-03 23:02 26.18675 -80.12569 4257 ft 179 kts 234°
2026-05-03 23:03 26.17900 -80.13669 4290 ft 185 kts 231°
2026-05-03 23:03 26.17054 -80.14739 4415 ft 184 kts 228°
2026-05-03 23:03 26.16149 -80.15768 4470 ft 187 kts 226°
2026-05-03 23:03 26.15236 -80.16797 4553 ft 188 kts 220°
2026-05-03 23:04 26.14018 -80.17279 4556 ft 193 kts 178°
2026-05-03 23:04 26.12619 -80.17146 4147 ft 209 kts 173°
2026-05-03 23:04 26.11223 -80.16933 4026 ft 202 kts 170°
2026-05-03 23:04 26.09897 -80.16553 3954 ft 194 kts 160°
2026-05-03 23:05 26.08678 -80.16039 3974 ft 185 kts 157°
2026-05-03 23:05 26.07522 -80.15491 3949 ft 180 kts 155°
2026-05-03 23:05 26.06379 -80.15039 4038 ft 171 kts 169°
2026-05-03 23:05 26.05198 -80.14919 3991 ft 171 kts 175°
2026-05-03 23:06 26.04022 -80.14913 3941 ft 171 kts 197°
2026-05-03 23:06 26.03039 -80.15621 3943 ft 168 kts 224°
2026-05-03 23:06 26.02242 -80.16606 3897 ft 168 kts 234°
2026-05-03 23:06 26.01771 -80.17767 3864 ft 166 kts 260°
2026-05-03 23:07 26.01670 -80.19017 3841 ft 165 kts 276°
2026-05-03 23:07 26.02005 -80.20259 3828 ft 161 kts 296°
2026-05-03 23:07 26.02442 -80.21337 4006 ft 150 kts 295°
2026-05-03 23:07 26.02851 -80.22412 4017 ft 151 kts 293°
2026-05-03 23:08 26.03202 -80.23508 4049 ft 151 kts 289°
2026-05-03 23:08 26.03482 -80.24663 4009 ft 155 kts 285°
2026-05-03 23:08 26.03629 -80.25850 4064 ft 153 kts 272°
2026-05-03 23:08 26.03642 -80.27074 3862 ft 167 kts 276°
2026-05-03 23:09 26.03786 -80.28346 3870 ft 163 kts 279°
2026-05-03 23:09 26.03912 -80.29562 3952 ft 158 kts 278°
2026-05-03 23:09 26.04065 -80.30747 3935 ft 159 kts 281°
2026-05-03 23:09 26.04307 -80.31930 3972 ft 157 kts 284°
2026-05-03 23:10 26.04526 -80.33114 3983 ft 156 kts 280°
2026-05-03 23:10 26.04674 -80.34313 3951 ft 158 kts 279°
2026-05-03 23:10 26.04804 -80.35521 3985 ft 156 kts 277°
2026-05-03 23:10 26.04922 -80.36726 3980 ft 156 kts 277°
2026-05-03 23:11 26.05210 -80.37843 3961 ft 156 kts 311°
2026-05-03 23:11 26.06151 -80.38371 3967 ft 154 kts 352°
2026-05-03 23:11 26.07145 -80.38408 4286 ft 131 kts 359°
2026-05-03 23:11 26.08065 -80.38443 4365 ft 135 kts 358°
2026-05-03 23:12 26.08963 -80.38513 4461 ft 129 kts 355°
2026-05-03 23:12 26.09848 -80.38722 4533 ft 134 kts 326°
2026-05-03 23:12 26.10116 -80.39712 4292 ft 162 kts 259°
2026-05-03 23:12 26.09840 -80.40859 4576 ft 145 kts 253°
2026-05-03 23:13 26.09504 -80.41979 4434 ft 159 kts 252°
2026-05-03 23:13 26.09019 -80.43044 4479 ft 154 kts 220°
2026-05-03 23:13 26.07936 -80.43153 4266 ft 169 kts 150°
2026-05-03 23:13 26.07363 -80.42107 4440 ft 151 kts 94°
2026-05-03 23:14 26.07362 -80.40987 4364 ft 144 kts 83°
2026-05-03 23:14 26.07471 -80.39897 4498 ft 135 kts 80°
2026-05-03 23:14 26.07602 -80.38844 4444 ft 141 kts 80°
2026-05-03 23:14 26.07724 -80.37748 4488 ft 144 kts 82°
2026-05-03 23:15 26.07815 -80.36618 4461 ft 152 kts 84°
2026-05-03 23:15 26.07897 -80.35458 4525 ft 153 kts 78°
2026-05-03 23:15 26.08404 -80.34543 4474 ft 141 kts 28°
2026-05-03 23:15 26.09359 -80.34458 4320 ft 142 kts 339°
2026-05-03 23:16 26.10007 -80.35241 4315 ft 142 kts 287°
2026-05-03 23:16 26.09991 -80.36387 4467 ft 143 kts 262°
2026-05-03 23:16 26.09793 -80.37457 4469 ft 137 kts 252°
2026-05-03 23:16 26.09266 -80.38366 4399 ft 147 kts 217°
2026-05-03 23:17 26.08286 -80.38493 4287 ft 156 kts 140°
2026-05-03 23:17 26.07946 -80.37376 4333 ft 159 kts 89°
2026-05-03 23:17 26.07938 -80.36169 4464 ft 160 kts 90°
2026-05-03 23:17 26.07931 -80.34898 4526 ft 168 kts 89°
2026-05-03 23:18 26.08077 -80.33600 4551 ft 174 kts 60°
2026-05-03 23:18 26.09136 -80.33011 4503 ft 178 kts 351°
2026-05-03 23:18 26.10215 -80.33488 4430 ft 168 kts 317°
2026-05-03 23:18 26.10641 -80.34739 4424 ft 179 kts 274°
2026-05-03 23:19 26.10569 -80.36114 4535 ft 176 kts 265°
2026-05-03 23:19 26.10394 -80.37469 4493 ft 179 kts 261°
2026-05-03 23:19 26.10085 -80.38771 4509 ft 172 kts 251°
2026-05-03 23:19 26.09461 -80.39909 4384 ft 176 kts 222°
2026-05-03 23:20 26.08331 -80.40317 4469 ft 174 kts 175°
2026-05-03 23:20 26.07249 -80.39716 4415 ft 180 kts 134°
2026-05-03 23:20 26.06652 -80.38537 4472 ft 176 kts 104°
2026-05-03 23:20 26.06510 -80.37171 4511 ft 180 kts 90°
2026-05-03 23:21 26.06499 -80.35797 4460 ft 178 kts 88°
2026-05-03 23:21 26.06499 -80.34422 4473 ft 179 kts 88°
2026-05-03 23:21 26.06489 -80.33012 4486 ft 184 kts 86°
2026-05-03 23:21 26.06984 -80.31743 4483 ft 185 kts 39°
2026-05-03 23:22 26.09239 -80.31536 4333 ft 176 kts 319°
2026-05-03 23:22 26.09841 -80.32629 4269 ft 162 kts 284°
2026-05-03 23:22 26.09939 -80.33796 4335 ft 143 kts 274°
2026-05-03 23:23 26.09887 -80.34862 4221 ft 140 kts 260°
2026-05-03 23:23 26.09515 -80.35928 3979 ft 151 kts 243°
2026-05-03 23:23 26.08972 -80.36916 4027 ft 141 kts 231°
2026-05-03 23:23 26.08305 -80.37614 4146 ft 126 kts 220°
2026-05-03 23:24 26.07656 -80.38202 4208 ft 115 kts 219°
2026-05-03 23:24 26.07044 -80.38740 4328 ft 109 kts 217°
2026-05-03 23:24 26.06278 -80.38921 4356 ft 127 kts 161°
2026-05-03 23:24 26.05700 -80.38200 4366 ft 140 kts 95°
2026-05-03 23:25 26.05792 -80.37480 4460 ft 144 kts 73°
2026-05-03 23:25 26.06197 -80.36035 4523 ft 150 kts 65°
2026-05-03 23:25 26.06468 -80.35306 4506 ft 151 kts 70°
2026-05-03 23:25 26.06669 -80.34167 4506 ft 151 kts 82°
2026-05-03 23:26 26.06724 -80.32620 4511 ft 151 kts 97°
2026-05-03 23:26 26.06307 -80.31596 4556 ft 150 kts 127°
2026-05-03 23:26 26.05407 -80.30983 4509 ft 155 kts 171°
2026-05-03 23:26 26.04693 -80.31031 4513 ft 155 kts 191°
2026-05-03 23:27 26.03767 -80.31608 4534 ft 152 kts 240°
2026-05-03 23:27 26.03649 -80.32690 4494 ft 143 kts 284°
2026-05-03 23:27 26.04161 -80.33668 4505 ft 147 kts 325°
2026-05-03 23:27 26.05117 -80.34038 4409 ft 153 kts 357°
2026-05-03 23:28 26.06105 -80.33608 4473 ft 159 kts 41°
2026-05-03 23:28 26.06752 -80.32569 4292 ft 170 kts 65°
2026-05-03 23:28 26.07131 -80.31365 4488 ft 161 kts 61°
2026-05-03 23:28 26.07965 -80.30586 4480 ft 161 kts 10°
2026-05-03 23:29 26.09070 -80.30579 4646 ft 148 kts 355°
2026-05-03 23:29 26.10065 -80.30705 4718 ft 148 kts 352°
2026-05-03 23:29 26.11148 -80.30884 4523 ft 163 kts 351°
2026-05-03 23:29 26.12220 -80.31088 4656 ft 156 kts 349°
2026-05-03 23:30 26.13326 -80.31149 4485 ft 167 kts
2026-05-03 23:30 26.14542 -80.31148 4341 ft 173 kts 353°
2026-05-03 23:30 26.15794 -80.31285 4219 ft 183 kts 350°
2026-05-03 23:30 26.17052 -80.31477 4234 ft 186 kts 354°
2026-05-03 23:31 26.18362 -80.31547 4102 ft 194 kts 359°
2026-05-03 23:31 26.19706 -80.31488 4095 ft 194 kts
2026-05-03 23:31 26.21088 -80.31475 3778 ft 208 kts 355°
2026-05-03 23:31 26.22570 -80.31681 3433 ft 218 kts 350°
2026-05-03 23:32 26.24076 -80.32078 3015 ft 227 kts 348°
2026-05-03 23:32 26.25525 -80.32328 2783 ft 203 kts 356°
2026-05-03 23:32 26.26921 -80.32349 2522 ft 204 kts
2026-05-03 23:32 26.28310 -80.32060 2269 ft 204 kts 21°
2026-05-03 23:33 26.29527 -80.31277 2141 ft 201 kts 32°
2026-05-03 23:33 26.30655 -80.30462 2099 ft 188 kts 33°
2026-05-03 23:33 26.31740 -80.29653 1925 ft 186 kts 34°
2026-05-03 23:33 26.32797 -80.28812 1706 ft 187 kts 35°
2026-05-03 23:34 26.33854 -80.28013 1640 ft 180 kts 31°
2026-05-03 23:34 26.34936 -80.27336 1667 ft 178 kts 27°
2026-05-03 23:34 26.36033 -80.26691 1764 ft 179 kts 26°
2026-05-03 23:34 26.37147 -80.26075 1910 ft 176 kts 24°
2026-05-03 23:35 26.38265 -80.25503 2028 ft 176 kts 22°
2026-05-03 23:35 26.39415 -80.24965 2043 ft 185 kts 22°
2026-05-03 23:35 26.40620 -80.24410 2117 ft 186 kts 22°
2026-05-03 23:35 26.41831 -80.23907 2157 ft 189 kts 18°
2026-05-03 23:36 26.43132 -80.23636 2193 ft 191 kts
2026-05-03 23:36 26.44465 -80.23691 2301 ft 188 kts 350°
2026-05-03 23:36 26.45682 -80.24120 2492 ft 183 kts 343°
2026-05-03 23:36 26.46941 -80.24509 2574 ft 173 kts 355°
2026-05-03 23:37 26.47869 -80.24131 2562 ft 134 kts 51°
2026-05-03 23:37 26.47989 -80.23118 1917 ft 140 kts 107°
2026-05-03 23:37 26.47491 -80.22196 1455 ft 129 kts 123°
2026-05-03 23:37 26.47060 -80.21354 1217 ft 122 kts 102°
2026-05-03 23:38 26.46930 -80.20443 1036 ft 118 kts 91°
2026-05-03 23:38 26.46859 -80.19584 982 ft 107 kts 85°
2026-05-03 23:38 26.46844 -80.18776 946 ft 103 kts 80°
2026-05-03 23:38 26.46764 -80.17987 784 ft 104 kts 104°
2026-05-03 23:39 26.46504 -80.17208 354 ft 102 kts 86°
2026-05-03 23:39 26.46534 -80.16441 115 ft 98 kts 85°
2026-05-03 23:39 26.46545 -80.15815 25 ft 59 kts 97°
2026-05-03 23:39 26.46566 -80.15626 26 ft 7 kts 30°
2026-05-03 23:40 26.46567 -80.15613 25 ft 0 kts 136°
2026-05-03 23:40 26.46561 -80.15611 25 ft 0 kts 181°
2026-05-03 23:41 26.46550 -80.15617 25 ft 6 kts 231°
2026-05-03 23:42 26.46545 -80.15676 26 ft 11 kts 270°
2026-05-03 23:42 26.46544 -80.15863 26 ft 46 kts 268°
2026-05-03 23:42 26.46532 -80.16223 31 ft 23 kts 270°
2026-05-03 23:42 26.46546 -80.16284 30 ft 4 kts 75°
2026-05-03 23:43 26.46543 -80.16212 31 ft 32 kts 89°
2026-05-03 23:43 26.46547 -80.15760 25 ft 78 kts 94°
2026-05-03 23:43 26.46535 -80.15021 87 ft 108 kts 80°
2026-05-03 23:43 26.46683 -80.14207 454 ft 103 kts 43°
2026-05-03 23:44 26.47370 -80.14187 627 ft 121 kts 316°
2026-05-03 23:44 26.47494 -80.15164 800 ft 143 kts 272°
2026-05-03 23:44 26.47437 -80.16376 753 ft 166 kts 271°
2026-05-03 23:44 26.47348 -80.17561 781 ft 136 kts 266°
2026-05-03 23:45 26.46752 -80.18268 621 ft 142 kts 185°
2026-05-03 23:45 26.46069 -80.17697 478 ft 126 kts 80°
2026-05-03 23:45 26.46403 -80.16924 254 ft 105 kts 56°
2026-05-03 23:45 26.46542 -80.16143 32 ft 101 kts 82°
2026-05-03 23:46 26.46533 -80.15300 75 ft 120 kts 91°
2026-05-03 23:46 26.46735 -80.14416 378 ft 113 kts 26°
2026-05-03 23:46 26.47293 -80.14857 585 ft 138 kts 263°
2026-05-03 23:46 26.47046 -80.15949 691 ft 147 kts 262°
2026-05-03 23:47 26.46886 -80.16907 504 ft 111 kts 272°
2026-05-03 23:47 26.46343 -80.17325 289 ft 131 kts 129°
2026-05-03 23:47 26.46608 -80.16753 251 ft 101 kts 52°
2026-05-03 23:47 26.46536 -80.15921 37 ft 99 kts 81°
2026-05-03 23:48 26.46550 -80.15152 44 ft 113 kts 82°
2026-05-03 23:48 26.46633 -80.14255 396 ft 106 kts 49°
2026-05-03 23:48 26.47160 -80.14500 459 ft 139 kts 275°
2026-05-03 23:48 26.47046 -80.15557 730 ft 140 kts 266°
2026-05-03 23:49 26.46895 -80.16565 588 ft 118 kts 269°
2026-05-03 23:49 26.46498 -80.17267 380 ft 127 kts 171°
2026-05-03 23:49 26.46455 -80.16639 211 ft 97 kts 37°
2026-05-03 23:49 26.46527 -80.15890 42 ft 89 kts 79°
2026-05-03 23:50 26.46546 -80.15216 51 ft 94 kts 77°
2026-05-03 23:50 26.46604 -80.14742 193 ft 94 kts 71°
2026-05-03 23:50 26.47072 -80.14270 275 ft 81 kts 328°
2026-05-03 23:50 26.47138 -80.14919 358 ft 94 kts 269°
2026-05-03 23:51 26.47060 -80.15711 480 ft 102 kts 273°
2026-05-03 23:51 26.46982 -80.16502 657 ft 107 kts 266°
2026-05-03 23:51 26.46578 -80.17127 382 ft 129 kts 164°
2026-05-03 23:51 26.46465 -80.16437 189 ft 99 kts 59°
2026-05-03 23:52 26.46520 -80.16053 31 ft 5 kts 92°
2026-05-03 23:52 26.46524 -80.16039 31 ft 0 kts 48°
2026-05-03 23:52 26.46534 -80.16032 31 ft 6 kts 26°
2026-05-03 23:52 26.46562 -80.15996 30 ft 0 kts 165°